• In Hungary
  • List of Countries
  • For 7 days
  • Water Temperature
  • Satellite Maps
  • Weather Map
  • News
  • Weather Widgets
  • user-avatar
    Login

    Hourly Weather Korolki

    Today, 14 November, Wednesday

    Time Temperature Precipitation Wind Pressure Humidity
    00:00 -7°C° 0 mm 2 mps 768 mmHg 39%
    01:00 -7°C° 0 mm 2 mps 767 mmHg 39%
    02:00 -7°C° 0 mm 2 mps 767 mmHg 38%
    03:00 -7°C° 0 mm 2 mps 767 mmHg 38%
    04:00 -7°C° 0 mm 2 mps 767 mmHg 38%
    05:00 -8°C° 0 mm 2 mps 767 mmHg 37%
    06:00 -8°C° 0 mm 2 mps 766 mmHg 37%
    07:00 -8°C° 0 mm 2 mps 766 mmHg 37%
    08:00 -6°C° 0 mm 1 mps 766 mmHg 34%
    09:00 -4°C° 0 mm 1 mps 766 mmHg 31%
    10:00 -3°C° 0 mm 1 mps 766 mmHg 28%
    11:00 -2°C° 0 mm 1 mps 766 mmHg 25%
    12:00 -1°C° 0 mm 1 mps 766 mmHg 23%
    13:00 0°C° 0 mm 1 mps 765 mmHg 20%
    14:00 0°C° 0 mm 1 mps 765 mmHg 21%
    15:00 -1°C° 0 mm 1 mps 765 mmHg 22%
    16:00 -1°C° 0 mm 1 mps 765 mmHg 24%
    17:00 -2°C° 0 mm 1 mps 765 mmHg 24%
    18:00 -2°C° 0 mm 1 mps 765 mmHg 25%
    19:00 -3°C° 0 mm 1 mps 765 mmHg 26%
    20:00 -3°C° 0 mm 1 mps 765 mmHg 26%
    21:00 -3°C° 0 mm 1 mps 765 mmHg 26%
    22:00 -4°C° 0 mm 1 mps 765 mmHg 27%
    23:00 -4°C° 0 mm 1 mps 765 mmHg 28%

    Tomorrow, 15 November, Thursday

    Time Temperature Precipitation Wind Pressure Humidity
    00:00 -4°C° 0 mm 1 mps 765 mmHg 28%
    01:00 -4°C° 0 mm 1 mps 765 mmHg 29%
    02:00 -4°C° 0 mm 1 mps 765 mmHg 29%
    03:00 -6°C° 0 mm 1 mps 765 mmHg 29%
    04:00 -6°C° 0 mm 1 mps 765 mmHg 30%
    05:00 -6°C° 0 mm 1 mps 765 mmHg 30%
    06:00 -6°C° 0 mm 1 mps 765 mmHg 30%
    07:00 -6°C° 0 mm 1 mps 765 mmHg 30%
    08:00 -4°C° 0 mm 1 mps 765 mmHg 29%
    09:00 -3°C° 0 mm 1 mps 765 mmHg 27%
    10:00 -2°C° 0 mm 1 mps 766 mmHg 25%
    11:00 -1°C° 0 mm 1 mps 766 mmHg 23%
    12:00 0°C° 0 mm 1 mps 766 mmHg 21%
    13:00 -1°C° 0 mm 2 mps 766 mmHg 20%
    14:00 0°C° 0 mm 1 mps 766 mmHg 21%
    15:00 0°C° 0 mm 1 mps 766 mmHg 23%
    16:00 -1°C° 0 mm 1 mps 766 mmHg 25%
    17:00 -1°C° 0 mm 1 mps 766 mmHg 26%
    18:00 -4°C° 0 mm 2 mps 766 mmHg 28%
    19:00 -5°C° 0 mm 2 mps 766 mmHg 29%
    20:00 -5°C° 0 mm 2 mps 766 mmHg 29%
    21:00 -5°C° 0 mm 2 mps 766 mmHg 30%
    22:00 -5°C° 0 mm 2 mps 766 mmHg 31%
    23:00 -5°C° 0 mm 2 mps 766 mmHg 32%

    Day after tomorrow, 16 November, Friday

    Time Temperature Precipitation Wind Pressure Humidity
    00:00 -6°C° 0 mm 2 mps 766 mmHg 32%
    01:00 -6°C° 0 mm 2 mps 766 mmHg 33%
    02:00 -4°C° 0 mm 1 mps 766 mmHg 34%
    03:00 -4°C° 0 mm 1 mps 766 mmHg 35%
    04:00 -4°C° 0 mm 1 mps 766 mmHg 36%
    05:00 -6°C° 0 mm 2 mps 766 mmHg 36%
    06:00 -6°C° 0 mm 2 mps 766 mmHg 37%
    07:00 -7°C° 0 mm 2 mps 766 mmHg 38%
    08:00 -6°C° 0 mm 2 mps 767 mmHg 36%
    09:00 -5°C° 0 mm 2 mps 767 mmHg 34%
    10:00 -4°C° 0 mm 2 mps 767 mmHg 32%
    11:00 -3°C° 0 mm 2 mps 767 mmHg 30%
    12:00 -2°C° 0 mm 2 mps 767 mmHg 28%
    13:00 -1°C° 0 mm 2 mps 767 mmHg 26%
    14:00 -1°C° 0 mm 2 mps 766 mmHg 28%
    15:00 -2°C° 0 mm 2 mps 766 mmHg 30%
    16:00 -2°C° 0 mm 2 mps 766 mmHg 32%
    17:00 -3°C° 0 mm 2 mps 766 mmHg 33%
    18:00 -4°C° 0 mm 2 mps 766 mmHg 34%
    19:00 -4°C° 0 mm 2 mps 766 mmHg 36%
    20:00 -4°C° 0 mm 2 mps 766 mmHg 37%
    21:00 -5°C° 0 mm 2 mps 766 mmHg 37%
    22:00 -5°C° 0 mm 2 mps 765 mmHg 38%
    23:00 -5°C° 0 mm 2 mps 765 mmHg 39%

    17 November, Saturday

    Time Temperature Precipitation Wind Pressure Humidity
    00:00 -5°C° 0 mm 2 mps 765 mmHg 40%
    01:00 -6°C° 0 mm 2 mps 765 mmHg 40%
    02:00 -6°C° 0 mm 2 mps 764 mmHg 41%
    03:00 -6°C° 0 mm 2 mps 764 mmHg 42%
    04:00 -6°C° 0 mm 2 mps 764 mmHg 43%
    05:00 -6°C° 0 mm 2 mps 764 mmHg 44%
    06:00 -4°C° 0 mm 1 mps 763 mmHg 45%
    07:00 -6°C° 0 mm 1 mps 763 mmHg 46%
    08:00 -4°C° 0 mm 1 mps 763 mmHg 45%
    09:00 -3°C° 0 mm 1 mps 763 mmHg 43%
    10:00 -2°C° 0 mm 1 mps 763 mmHg 42%
    11:00 -1°C° 0 mm 1 mps 762 mmHg 40%
    12:00 0°C° 0 mm 1 mps 762 mmHg 39%
    13:00 +1°C° 0 mm 1 mps 761 mmHg 37%
    14:00 +1°C° 0 mm 1 mps 761 mmHg 39%
    15:00 0°C° 0 mm 1 mps 760 mmHg 40%
    16:00 0°C° 0 mm 1 mps 760 mmHg 42%
    17:00 -1°C° 0 mm 1 mps 759 mmHg 42%
    18:00 -1°C° 0 mm 1 mps 759 mmHg 42%
    19:00 -2°C° 0 mm 1 mps 759 mmHg 42%
    20:00 -2°C° 0 mm 1 mps 759 mmHg 41%
    21:00 -2°C° 0 mm 1 mps 758 mmHg 41%
    22:00 -2°C° 0 mm 1 mps 758 mmHg 40%
    23:00 -2°C° 0 mm 1 mps 758 mmHg 39%

    18 November, Sunday

    Time Temperature Precipitation Wind Pressure Humidity
    00:00 -3°C° 0 mm 1 mps 757 mmHg 39%
    01:00 -3°C° 0 mm 1 mps 757 mmHg 38%
    02:00 -3°C° 0 mm 1 mps 757 mmHg 38%
    03:00 -3°C° 0 mm 1 mps 756 mmHg 37%
    04:00 -5°C° 0 mm 0 mps 756 mmHg 37%
    05:00 -4°C° 0 mm 1 mps 756 mmHg 37%
    06:00 -4°C° 0 mm 1 mps 755 mmHg 37%
    07:00 -4°C° 0 mm 1 mps 755 mmHg 37%
    08:00 -3°C° 0 mm 1 mps 755 mmHg 35%
    09:00 -2°C° 0 mm 1 mps 755 mmHg 33%
    10:00 -1°C° 0 mm 1 mps 755 mmHg 31%
    11:00 0°C° 0 mm 1 mps 754 mmHg 32%
    12:00 +1°C° 0 mm 1 mps 754 mmHg 32%
    13:00 +1°C° 0 mm 2 mps 754 mmHg 32%
    14:00 +1°C° 0 mm 2 mps 754 mmHg 36%
    15:00 -1°C° 0 mm 2 mps 754 mmHg 40%
    16:00 -2°C° 0 mm 2 mps 754 mmHg 44%
    17:00 -2°C° 0 mm 3 mps 754 mmHg 47%
    18:00 -2°C° 0 mm 3 mps 754 mmHg 50%
    19:00 -4°C° 0 mm 3 mps 754 mmHg 53%
    20:00 -4°C° 0 mm 3 mps 754 mmHg 53%
    21:00 -2°C° 0 mm 3 mps 753 mmHg 53%
    22:00 -2°C° 0 mm 3 mps 753 mmHg 54%
    23:00 -2°C° 0 mm 3 mps 754 mmHg 54%

    19 November, Monday

    Time Temperature Precipitation Wind Pressure Humidity
    00:00 -2°C° 0 mm 3 mps 754 mmHg 55%
    01:00 -2°C° 0 mm 3 mps 754 mmHg 55%
    02:00 -2°C° 0 mm 3 mps 754 mmHg 55%
    03:00 -3°C° 0 mm 4 mps 754 mmHg 55%
    04:00 -3°C° 0 mm 4 mps 754 mmHg 55%
    05:00 -3°C° 0 mm 4 mps 754 mmHg 55%
    06:00 -3°C° 0 mm 4 mps 754 mmHg 55%
    07:00 -3°C° 0 mm 4 mps 754 mmHg 54%
    08:00 -2°C° 0 mm 4 mps 754 mmHg 53%
    09:00 -2°C° 0 mm 4 mps 754 mmHg 52%
    10:00 -2°C° 0 mm 4 mps 755 mmHg 51%
    11:00 -1°C° 0 mm 4 mps 755 mmHg 49%
    12:00 -1°C° 0 mm 5 mps 755 mmHg 48%
    13:00 0°C° 0 mm 5 mps 755 mmHg 46%
    14:00 0°C° 0 mm 4 mps 755 mmHg 49%
    15:00 -1°C° 0 mm 4 mps 755 mmHg 52%
    16:00 -1°C° 0 mm 4 mps 754 mmHg 55%
    17:00 -1°C° 0 mm 3 mps 754 mmHg 57%
    18:00 -1°C° 0 mm 3 mps 754 mmHg 60%
    19:00 -1°C° 0 mm 3 mps 754 mmHg 62%
    20:00 -1°C° 0 mm 3 mps 754 mmHg 62%
    21:00 -2°C° 0 mm 3 mps 754 mmHg 62%
    22:00 -2°C° 0 mm 3 mps 754 mmHg 61%
    23:00 -2°C° 0 mm 3 mps 754 mmHg 61%
    Show more